Yakima, WA

7:49 AM PDT on August 18, 2017 (GMT -0700)
Yakima Air Term-McAllister

Weather History for KYKM - February, 2014

Change the Weather History Date:

Thursday, February 20, 2014

  Actual Average Record
Temperature  
Mean Temperature 42 °F 37 °F  
Max Temperature 55 °F 48 °F 63 °F (1982)
Min Temperature 28 °F 26 °F 8 °F (1986)
Degree Days  
Heating Degree Days 23 28  
Month to date heating degree days 681 594  
Since 1 July heating degree days 4187 4312  
Cooling Degree Days 0 0  
Month to date cooling degree days 0 0  
Year to date cooling degree days 0 0  
Moisture  
Dew Point 25 °F    
Average Humidity 58    
Maximum Humidity 85    
Minimum Humidity 30    
Precipitation  
Precipitation 0.00 in 0.03 in 0.72 in (1982)
Month to date precipitation 1.35 0.57  
Year to date precipitation 1.65 1.71  
Snow  
Snow 0.00 in 0.10 in 4.60 in (1948)
Month to date snowfall 17.6 2.0  
Year to date snowfall 18.1 7.3  
Since 1 July snowfall 18.1 20.3  
Snow Depth 0.00 in    
Sea Level Pressure  
Sea Level Pressure 30.04 in    
Wind  
Wind Speed 14 mph (West)    
Max Wind Speed 33 mph    
Max Gust Speed 44 mph    
Visibility 10 miles    
Events      
T = Trace of Precipitation, MM = Missing Value Source: NWS Daily Summary

Daily Weather History Graph

Daily Weather History Graph

Search for Another Location

Airport or City:

Trip Planner

Search our weather history database for the weather conditions in past years. The results will help you decide how hot, cold, wet, or windy it might be!

Date:

Astronomy

Feb. 20, 2014 Rise Set
Actual Time 6:57 AM PST 5:35 PM PST
Civil Twilight 6:26 AM PST 6:05 PM PST
Nautical Twilight 5:51 AM PST 6:40 PM PST
Astronomical Twilight 5:16 AM PST 7:15 PM PST
Moon 11:58 PM PST (2/20) 9:21 AM PST (2/20)
Length of Visible Light 11h 39m
Length of Day
10h 37m
Waning Gibbous, 70% of the Moon is Illuminated
Feb 20
Waning Gibbous
Feb 22
Last Quarter
Mar 1
New
Mar 8
First Quarter
Mar 16
Full

Hourly Weather History & Observations

Time (PST) Temp. Windchill Dew Point Humidity Pressure Visibility Wind Dir Wind Speed Gust Speed Precip Events Conditions
12:53 AM 30.0 °F 22.4 °F 24.1 °F 79% 30.10 in 10.0 mi West 8.1 mph - N/A   Clear
1:53 AM 28.9 °F 22.8 °F 24.1 °F 82% 30.09 in 10.0 mi WNW 5.8 mph - N/A   Clear
2:53 AM 28.0 °F 24.2 °F 23.0 °F 81% 30.06 in 10.0 mi SSE 3.5 mph - N/A   Clear
3:53 AM 30.0 °F - 24.1 °F 79% 30.04 in 10.0 mi Calm Calm - N/A   Clear
4:53 AM 28.9 °F - 24.1 °F 82% 30.01 in 10.0 mi Calm Calm - N/A   Partly Cloudy
5:53 AM 30.9 °F - 26.1 °F 82% 30.01 in 10.0 mi Calm Calm - N/A   Mostly Cloudy
6:53 AM 33.1 °F 30.0 °F 27.0 °F 78% 29.98 in 10.0 mi Variable 3.5 mph - N/A   Overcast
7:53 AM 35.1 °F 32.2 °F 28.0 °F 76% 29.99 in 10.0 mi Variable 3.5 mph - N/A   Scattered Clouds
8:53 AM 41.0 °F 38.0 °F 30.0 °F 65% 30.00 in 10.0 mi East 4.6 mph - N/A   Scattered Clouds
9:53 AM 50.0 °F - 27.0 °F 41% 30.00 in 10.0 mi WSW 17.3 mph 31.1 mph N/A   Scattered Clouds
10:00 AM 50.0 °F - 26.1 °F 39% 29.98 in 10.0 mi SW 8.1 mph 31.1 mph N/A   Scattered Clouds
10:53 AM 53.1 °F - 26.1 °F 35% 30.00 in 10.0 mi West 19.6 mph 28.8 mph N/A   Scattered Clouds
11:53 AM 55.0 °F - 25.0 °F 31% 30.03 in 10.0 mi West 15.0 mph 20.7 mph N/A   Scattered Clouds
12:53 PM 54.0 °F - 24.1 °F 31% 30.02 in 10.0 mi West 27.6 mph 38.0 mph N/A   Partly Cloudy
1:53 PM 53.1 °F - 25.0 °F 34% 30.04 in 10.0 mi WNW 28.8 mph 39.1 mph N/A   Partly Cloudy
2:53 PM 52.0 °F - 26.1 °F 37% 30.04 in 10.0 mi WNW 29.9 mph 39.1 mph N/A   Clear
3:53 PM 52.0 °F - 26.1 °F 37% 30.05 in 10.0 mi West 26.5 mph 35.7 mph N/A   Scattered Clouds
4:53 PM 50.0 °F - 26.1 °F 39% 30.06 in 10.0 mi WNW 16.1 mph - N/A   Clear
5:53 PM 48.0 °F - 25.0 °F 41% 30.05 in 10.0 mi WNW 20.7 mph 28.8 mph N/A   Clear
6:53 PM 46.9 °F - 25.0 °F 42% 30.06 in 10.0 mi West 13.8 mph 21.9 mph N/A   Clear
7:53 PM 46.9 °F - 24.1 °F 41% 30.06 in 10.0 mi West 15.0 mph - N/A   Clear
8:53 PM 48.0 °F - 24.1 °F 39% 30.07 in 10.0 mi WNW 20.7 mph 31.1 mph N/A   Clear
9:53 PM 46.0 °F 39.0 °F 25.0 °F 44% 30.06 in 10.0 mi WNW 17.3 mph 23.0 mph N/A   Clear
10:53 PM 46.0 °F 39.0 °F 24.1 °F 42% 30.05 in 10.0 mi NW 17.3 mph - N/A   Clear
11:53 PM 46.0 °F 38.5 °F 23.0 °F 40% 30.06 in 10.0 mi WNW 19.6 mph 31.1 mph N/A   Clear